[Date Prev][Date Next][Thread Prev][Thread Next] - [Date Index][Thread Index][Author Index]
2 Line ISS Keps 12-29
- Subject: [sarex] 2 Line ISS Keps 12-29
- From: "Dave Larsen PhD" <doc@xxxxxxxxxxx>
- Date: Sun, 28 Dec 2003 21:06:43 -0800
ISS
1 25544U 98067A 04362.07745200 .00031326 00000-0 23922-3 0 4520
2 25544 51.6395 61.0184 0003995 136.7139 298.6233 15.71892458348623
----
Via the sarex mailing list at AMSAT.ORG courtesy of AMSAT-NA.
To unsubscribe, send "unsubscribe sarex" to Majordomo@amsat.org
AMSAT Home